Date_Time,Julian_Date,Latitude,Longitude,Instrument_Depth,U,V,Speed,Direction
(yyyy-mm-dd hh:mn:ss UTC),(JD),(+ deg. North),(+ deg. East),(m),(cm/s),(cm/s),(cm/s),(deg True)
1980-10-20 21:10:00 UTC,2444533.381944,27.9056,-93.7647,0900,-0.59,-16.99,17.0000,182.0000
1980-10-20 21:30:00 UTC,2444533.395833,27.9056,-93.7647,0900,0.31,-18.00,18.0000,179.0000
1980-10-20 21:50:00 UTC,2444533.409722,27.9056,-93.7647,0900,1.05,-14.96,15.0000,176.0000
1980-10-20 22:10:00 UTC,2444533.423611,27.9056,-93.7647,0900,0.00,-14.00,14.0000,180.0000
1980-10-20 22:30:00 UTC,2444533.437500,27.9056,-93.7647,0900,-0.49,-13.99,14.0000,182.0000
1980-10-20 22:50:00 UTC,2444533.451389,27.9056,-93.7647,0900,-0.42,-11.99,12.0000,182.0000
1980-10-20 23:10:00 UTC,2444533.465278,27.9056,-93.7647,0900,-1.22,-9.93,10.0000,187.0000
1980-10-20 23:30:00 UTC,2444533.479167,27.9056,-93.7647,0900,-0.97,-7.94,8.0000,187.0000
1980-10-20 23:50:00 UTC,2444533.493056,27.9056,-93.7647,0900,-0.28,-8.00,8.0000,182.0000
1980-10-21 00:10:00 UTC,2444533.506944,27.9056,-93.7647,0900,-0.26,-4.99,5.0000,183.0000
1980-10-21 00:30:00 UTC,2444533.520833,27.9056,-93.7647,0900,-0.90,-3.90,4.0000,193.0000
1980-10-21 00:50:00 UTC,2444533.534722,27.9056,-93.7647,0900,-1.41,-2.65,3.0000,208.0000
1980-10-21 01:10:00 UTC,2444533.548611,27.9056,-93.7647,0900,-1.03,-1.71,2.0000,211.0000
1980-10-21 01:30:00 UTC,2444533.562500,27.9056,-93.7647,0900,-1.63,-2.52,3.0000,213.0000
1980-10-21 01:50:00 UTC,2444533.576389,27.9056,-93.7647,0900,-0.00,-0.00,0.0000,213.0000
1980-10-21 02:10:00 UTC,2444533.590278,27.9056,-93.7647,0900,-0.42,1.96,2.0000,348.0000
1980-10-21 02:30:00 UTC,2444533.604167,27.9056,-93.7647,0900,-0.52,1.93,2.0000,345.0000
1980-10-21 02:50:00 UTC,2444533.618056,27.9056,-93.7647,0900,-0.35,1.97,2.0000,350.0000
1980-10-21 03:10:00 UTC,2444533.631944,27.9056,-93.7647,0900,-0.07,1.00,1.0000,356.0000
1980-10-21 03:30:00 UTC,2444533.645833,27.9056,-93.7647,0900,0.62,2.93,3.0000,12.0000
1980-10-21 03:50:00 UTC,2444533.659722,27.9056,-93.7647,0900,-0.03,2.00,2.0000,359.0000
1980-10-21 04:10:00 UTC,2444533.673611,27.9056,-93.7647,0900,0.03,1.00,1.0000,2.0000
1980-10-21 04:30:00 UTC,2444533.687500,27.9056,-93.7647,0900,0.31,1.98,2.0000,9.0000
1980-10-21 04:50:00 UTC,2444533.701389,27.9056,-93.7647,0900,1.03,2.82,3.0000,20.0000
1980-10-21 05:10:00 UTC,2444533.715278,27.9056,-93.7647,0900,1.68,2.49,3.0000,34.0000
1980-10-21 05:30:00 UTC,2444533.729167,27.9056,-93.7647,0900,1.39,1.44,2.0000,44.0000
1980-10-21 05:50:00 UTC,2444533.743056,27.9056,-93.7647,0900,1.75,0.97,2.0000,61.0000
1980-10-21 06:10:00 UTC,2444533.756944,27.9056,-93.7647,0900,3.00,0.05,3.0000,89.0000
1980-10-21 06:30:00 UTC,2444533.770833,27.9056,-93.7647,0900,2.99,-0.26,3.0000,95.0000
1980-10-21 06:50:00 UTC,2444533.784722,27.9056,-93.7647,0900,3.53,1.88,4.0000,62.0000
1980-10-21 07:10:00 UTC,2444533.798611,27.9056,-93.7647,0900,2.80,1.08,3.0000,69.0000
1980-10-21 07:30:00 UTC,2444533.812500,27.9056,-93.7647,0900,1.98,0.31,2.0000,81.0000
1980-10-21 07:50:00 UTC,2444533.826389,27.9056,-93.7647,0900,2.95,0.52,3.0000,80.0000
1980-10-21 08:10:00 UTC,2444533.840278,27.9056,-93.7647,0900,3.93,0.76,4.0000,79.0000
1980-10-21 08:30:00 UTC,2444533.854167,27.9056,-93.7647,0900,3.95,0.63,4.0000,81.0000
1980-10-21 08:50:00 UTC,2444533.868056,27.9056,-93.7647,0900,3.95,0.63,4.0000,81.0000
1980-10-21 09:10:00 UTC,2444533.881944,27.9056,-93.7647,0900,3.95,0.63,4.0000,81.0000
1980-10-21 09:30:00 UTC,2444533.895833,27.9056,-93.7647,0900,3.65,1.63,4.0000,66.0000
1980-10-21 09:50:00 UTC,2444533.909722,27.9056,-93.7647,0900,4.41,2.35,5.0000,62.0000
1980-10-21 10:10:00 UTC,2444533.923611,27.9056,-93.7647,0900,3.91,0.83,4.0000,78.0000
1980-10-21 10:30:00 UTC,2444533.937500,27.9056,-93.7647,0900,5.00,0.09,5.0000,89.0000
1980-10-21 10:50:00 UTC,2444533.951389,27.9056,-93.7647,0900,4.94,-0.78,5.0000,99.0000
1980-10-21 11:10:00 UTC,2444533.965278,27.9056,-93.7647,0900,3.94,-0.69,4.0000,100.0000
1980-10-21 11:30:00 UTC,2444533.979167,27.9056,-93.7647,0900,2.80,-1.08,3.0000,111.0000
1980-10-21 11:50:00 UTC,2444533.993056,27.9056,-93.7647,0900,4.70,-1.71,5.0000,110.0000
1980-10-21 12:10:00 UTC,2444534.006944,27.9056,-93.7647,0900,3.60,-1.75,4.0000,116.0000
1980-10-21 12:30:00 UTC,2444534.020833,27.9056,-93.7647,0900,2.67,-1.36,3.0000,117.0000
1980-10-21 12:50:00 UTC,2444534.034722,27.9056,-93.7647,0900,4.46,-2.27,5.0000,117.0000
1980-10-21 13:10:00 UTC,2444534.048611,27.9056,-93.7647,0900,2.88,-0.83,3.0000,106.0000
1980-10-21 13:30:00 UTC,2444534.062500,27.9056,-93.7647,0900,2.95,-0.52,3.0000,100.0000
1980-10-21 13:50:00 UTC,2444534.076389,27.9056,-93.7647,0900,3.94,-0.69,4.0000,100.0000
1980-10-21 14:10:00 UTC,2444534.090278,27.9056,-93.7647,0900,3.98,-0.35,4.0000,95.0000
1980-10-21 14:30:00 UTC,2444534.104167,27.9056,-93.7647,0900,2.88,-0.83,3.0000,106.0000
1980-10-21 14:50:00 UTC,2444534.118056,27.9056,-93.7647,0900,3.95,-0.63,4.0000,99.0000
1980-10-21 15:10:00 UTC,2444534.131944,27.9056,-93.7647,0900,2.98,-0.37,3.0000,97.0000
1980-10-21 15:30:00 UTC,2444534.145833,27.9056,-93.7647,0900,2.95,-0.52,3.0000,100.0000
1980-10-21 15:50:00 UTC,2444534.159722,27.9056,-93.7647,0900,3.94,-0.69,4.0000,100.0000
1980-10-21 16:10:00 UTC,2444534.173611,27.9056,-93.7647,0900,3.90,-0.90,4.0000,103.0000
1980-10-21 16:30:00 UTC,2444534.187500,27.9056,-93.7647,0900,5.85,-1.35,6.0000,103.0000
1980-10-21 16:50:00 UTC,2444534.201389,27.9056,-93.7647,0900,2.72,-4.19,5.0000,147.0000
1980-10-21 17:10:00 UTC,2444534.215278,27.9056,-93.7647,0900,0.88,-1.80,2.0000,154.0000
1980-10-21 17:30:00 UTC,2444534.229167,27.9056,-93.7647,0900,1.04,-3.86,4.0000,165.0000
1980-10-21 17:50:00 UTC,2444534.243056,27.9056,-93.7647,0900,1.17,-3.83,4.0000,163.0000
1980-10-21 18:10:00 UTC,2444534.256944,27.9056,-93.7647,0900,-0.87,-4.92,5.0000,190.0000
1980-10-21 18:30:00 UTC,2444534.270833,27.9056,-93.7647,0900,-0.90,-3.90,4.0000,193.0000
1980-10-21 18:50:00 UTC,2444534.284722,27.9056,-93.7647,0900,-0.69,-3.94,4.0000,190.0000
1980-10-21 19:10:00 UTC,2444534.298611,27.9056,-93.7647,0900,-0.78,-4.94,5.0000,189.0000
1980-10-21 19:30:00 UTC,2444534.312500,27.9056,-93.7647,0900,-2.28,-6.62,7.0000,199.0000
1980-10-21 19:50:00 UTC,2444534.326389,27.9056,-93.7647,0900,-0.94,-8.95,9.0000,186.0000
1980-10-21 20:10:00 UTC,2444534.340278,27.9056,-93.7647,0900,0.00,-12.00,12.0000,180.0000
1980-10-21 20:30:00 UTC,2444534.354167,27.9056,-93.7647,0900,-1.39,-15.94,16.0000,185.0000
1980-10-21 20:50:00 UTC,2444534.368056,27.9056,-93.7647,0900,-1.57,-14.92,15.0000,186.0000
1980-10-21 21:10:00 UTC,2444534.381944,27.9056,-93.7647,0900,-2.03,-12.84,13.0000,189.0000
1980-10-21 21:30:00 UTC,2444534.395833,27.9056,-93.7647,0900,-3.63,-14.55,15.0000,194.0000
1980-10-21 21:50:00 UTC,2444534.409722,27.9056,-93.7647,0900,-2.60,-14.77,15.0000,190.0000
1980-10-21 22:10:00 UTC,2444534.423611,27.9056,-93.7647,0900,-2.78,-15.76,16.0000,190.0000
1980-10-21 22:30:00 UTC,2444534.437500,27.9056,-93.7647,0900,-3.15,-13.64,14.0000,193.0000
1980-10-21 22:50:00 UTC,2444534.451389,27.9056,-93.7647,0900,-2.49,-11.74,12.0000,192.0000
1980-10-21 23:10:00 UTC,2444534.465278,27.9056,-93.7647,0900,-1.72,-10.86,11.0000,189.0000
1980-10-21 23:30:00 UTC,2444534.479167,27.9056,-93.7647,0900,-1.34,-10.92,11.0000,187.0000
1980-10-21 23:50:00 UTC,2444534.493056,27.9056,-93.7647,0900,-1.34,-10.92,11.0000,187.0000
1980-10-22 00:10:00 UTC,2444534.506944,27.9056,-93.7647,0900,0.17,-10.00,10.0000,179.0000
1980-10-22 00:30:00 UTC,2444534.520833,27.9056,-93.7647,0900,4.69,-8.83,10.0000,152.0000
1980-10-22 00:50:00 UTC,2444534.534722,27.9056,-93.7647,0900,8.70,-9.66,13.0000,138.0000
1980-10-22 01:10:00 UTC,2444534.548611,27.9056,-93.7647,0900,9.35,-9.03,13.0000,134.0000
1980-10-22 01:30:00 UTC,2444534.562500,27.9056,-93.7647,0900,7.19,-6.95,10.0000,134.0000
1980-10-22 01:50:00 UTC,2444534.576389,27.9056,-93.7647,0900,8.04,-7.50,11.0000,133.0000
1980-10-22 02:10:00 UTC,2444534.590278,27.9056,-93.7647,0900,5.52,-4.31,7.0000,128.0000
1980-10-22 02:30:00 UTC,2444534.604167,27.9056,-93.7647,0900,6.30,-4.93,8.0000,128.0000
1980-10-22 02:50:00 UTC,2444534.618056,27.9056,-93.7647,0900,4.79,-3.61,6.0000,127.0000
1980-10-22 03:10:00 UTC,2444534.631944,27.9056,-93.7647,0900,5.03,-3.27,6.0000,123.0000
1980-10-22 03:30:00 UTC,2444534.645833,27.9056,-93.7647,0900,5.39,-2.63,6.0000,116.0000
1980-10-22 03:50:00 UTC,2444534.659722,27.9056,-93.7647,0900,3.98,-0.35,4.0000,95.0000
1980-10-22 04:10:00 UTC,2444534.673611,27.9056,-93.7647,0900,3.93,0.76,4.0000,79.0000
1980-10-22 04:30:00 UTC,2444534.687500,27.9056,-93.7647,0900,3.50,1.94,4.0000,61.0000
1980-10-22 04:50:00 UTC,2444534.701389,27.9056,-93.7647,0900,1.89,0.65,2.0000,71.0000
1980-10-22 05:10:00 UTC,2444534.715278,27.9056,-93.7647,0900,2.65,1.41,3.0000,62.0000
1980-10-22 05:30:00 UTC,2444534.729167,27.9056,-93.7647,0900,3.28,2.29,4.0000,55.0000
1980-10-22 05:50:00 UTC,2444534.743056,27.9056,-93.7647,0900,4.10,2.87,5.0000,55.0000
1980-10-22 06:10:00 UTC,2444534.756944,27.9056,-93.7647,0900,3.73,1.43,4.0000,69.0000
1980-10-22 06:30:00 UTC,2444534.770833,27.9056,-93.7647,0900,3.97,0.49,4.0000,83.0000
1980-10-22 06:50:00 UTC,2444534.784722,27.9056,-93.7647,0900,3.93,0.76,4.0000,79.0000
1980-10-22 07:10:00 UTC,2444534.798611,27.9056,-93.7647,0900,4.96,0.61,5.0000,83.0000
1980-10-22 07:30:00 UTC,2444534.812500,27.9056,-93.7647,0900,3.85,-1.10,4.0000,106.0000
1980-10-22 07:50:00 UTC,2444534.826389,27.9056,-93.7647,0900,3.88,-0.97,4.0000,104.0000
1980-10-22 08:10:00 UTC,2444534.840278,27.9056,-93.7647,0900,4.81,-1.38,5.0000,106.0000
1980-10-22 08:30:00 UTC,2444534.854167,27.9056,-93.7647,0900,4.73,-1.63,5.0000,109.0000
1980-10-22 08:50:00 UTC,2444534.868056,27.9056,-93.7647,0900,4.49,-2.19,5.0000,116.0000
1980-10-22 09:10:00 UTC,2444534.881944,27.9056,-93.7647,0900,4.73,-1.63,5.0000,109.0000
1980-10-22 09:30:00 UTC,2444534.895833,27.9056,-93.7647,0900,5.52,-2.34,6.0000,113.0000
1980-10-22 09:50:00 UTC,2444534.909722,27.9056,-93.7647,0900,4.85,-1.21,5.0000,104.0000
1980-10-22 10:10:00 UTC,2444534.923611,27.9056,-93.7647,0900,3.94,-0.69,4.0000,100.0000
1980-10-22 10:30:00 UTC,2444534.937500,27.9056,-93.7647,0900,2.88,-0.83,3.0000,106.0000
1980-10-22 10:50:00 UTC,2444534.951389,27.9056,-93.7647,0900,3.90,-0.90,4.0000,103.0000
1980-10-22 11:10:00 UTC,2444534.965278,27.9056,-93.7647,0900,3.90,-0.90,4.0000,103.0000
1980-10-22 11:30:00 UTC,2444534.979167,27.9056,-93.7647,0900,3.78,-1.30,4.0000,109.0000
1980-10-22 11:50:00 UTC,2444534.993056,27.9056,-93.7647,0900,3.98,-0.35,4.0000,95.0000
1980-10-22 12:10:00 UTC,2444535.006944,27.9056,-93.7647,0900,5.00,0.00,5.0000,90.0000
1980-10-22 12:30:00 UTC,2444535.020833,27.9056,-93.7647,0900,3.88,-0.97,4.0000,104.0000
1980-10-22 12:50:00 UTC,2444535.034722,27.9056,-93.7647,0900,5.98,0.52,6.0000,85.0000
1980-10-22 13:10:00 UTC,2444535.048611,27.9056,-93.7647,0900,4.83,1.29,5.0000,75.0000
1980-10-22 13:30:00 UTC,2444535.062500,27.9056,-93.7647,0900,5.39,2.63,6.0000,64.0000
1980-10-22 13:50:00 UTC,2444535.076389,27.9056,-93.7647,0900,6.34,2.96,7.0000,65.0000
1980-10-22 14:10:00 UTC,2444535.090278,27.9056,-93.7647,0900,5.48,2.44,6.0000,66.0000
1980-10-22 14:30:00 UTC,2444535.104167,27.9056,-93.7647,0900,5.67,1.95,6.0000,71.0000
1980-10-22 14:50:00 UTC,2444535.118056,27.9056,-93.7647,0900,6.39,2.85,7.0000,66.0000
1980-10-22 15:10:00 UTC,2444535.131944,27.9056,-93.7647,0900,6.39,2.85,7.0000,66.0000
1980-10-22 15:30:00 UTC,2444535.145833,27.9056,-93.7647,0900,5.96,0.73,6.0000,83.0000
1980-10-22 15:50:00 UTC,2444535.159722,27.9056,-93.7647,0900,5.89,1.14,6.0000,79.0000
1980-10-22 16:10:00 UTC,2444535.173611,27.9056,-93.7647,0900,4.96,0.61,5.0000,83.0000
1980-10-22 16:30:00 UTC,2444535.187500,27.9056,-93.7647,0900,5.44,2.54,6.0000,65.0000
1980-10-22 16:50:00 UTC,2444535.201389,27.9056,-93.7647,0900,5.00,0.17,5.0000,88.0000
1980-10-22 17:10:00 UTC,2444535.215278,27.9056,-93.7647,0900,4.94,0.78,5.0000,81.0000
1980-10-22 17:30:00 UTC,2444535.229167,27.9056,-93.7647,0900,3.73,1.43,4.0000,69.0000
1980-10-22 17:50:00 UTC,2444535.243056,27.9056,-93.7647,0900,2.78,1.12,3.0000,68.0000
1980-10-22 18:10:00 UTC,2444535.256944,27.9056,-93.7647,0900,0.98,-0.17,1.0000,100.0000
1980-10-22 18:30:00 UTC,2444535.270833,27.9056,-93.7647,0900,0.00,0.00,0.0000,89.0000
1980-10-22 18:50:00 UTC,2444535.284722,27.9056,-93.7647,0900,-0.00,0.00,0.0000,335.0000
1980-10-22 19:10:00 UTC,2444535.298611,27.9056,-93.7647,0900,0.77,-0.64,1.0000,130.0000
1980-10-22 19:30:00 UTC,2444535.312500,27.9056,-93.7647,0900,0.88,-1.80,2.0000,154.0000
1980-10-22 19:50:00 UTC,2444535.326389,27.9056,-93.7647,0900,1.55,-2.57,3.0000,149.0000
1980-10-22 20:10:00 UTC,2444535.340278,27.9056,-93.7647,0900,2.29,-3.28,4.0000,145.0000
1980-10-22 20:30:00 UTC,2444535.354167,27.9056,-93.7647,0900,2.94,-4.05,5.0000,144.0000
1980-10-22 20:50:00 UTC,2444535.368056,27.9056,-93.7647,0900,2.03,-4.57,5.0000,156.0000
1980-10-22 21:10:00 UTC,2444535.381944,27.9056,-93.7647,0900,2.16,-6.66,7.0000,162.0000
1980-10-22 21:30:00 UTC,2444535.395833,27.9056,-93.7647,0900,2.87,-7.47,8.0000,159.0000
1980-10-22 21:50:00 UTC,2444535.409722,27.9056,-93.7647,0900,2.63,-8.61,9.0000,163.0000
1980-10-22 22:10:00 UTC,2444535.423611,27.9056,-93.7647,0900,1.67,-11.88,12.0000,172.0000
1980-10-22 22:30:00 UTC,2444535.437500,27.9056,-93.7647,0900,0.17,-10.00,10.0000,179.0000
1980-10-22 22:50:00 UTC,2444535.451389,27.9056,-93.7647,0900,-0.68,-12.98,13.0000,183.0000
1980-10-22 23:10:00 UTC,2444535.465278,27.9056,-93.7647,0900,-0.58,-10.98,11.0000,183.0000
1980-10-22 23:30:00 UTC,2444535.479167,27.9056,-93.7647,0900,0.23,-13.00,13.0000,179.0000
1980-10-22 23:50:00 UTC,2444535.493056,27.9056,-93.7647,0900,0.35,-9.99,10.0000,178.0000
1980-10-23 00:10:00 UTC,2444535.506944,27.9056,-93.7647,0900,2.29,-10.76,11.0000,168.0000
1980-10-23 00:30:00 UTC,2444535.520833,27.9056,-93.7647,0900,3.58,-10.40,11.0000,161.0000
1980-10-23 00:50:00 UTC,2444535.534722,27.9056,-93.7647,0900,3.38,-7.25,8.0000,155.0000
1980-10-23 01:10:00 UTC,2444535.548611,27.9056,-93.7647,0900,2.06,-3.43,4.0000,149.0000
1980-10-23 01:30:00 UTC,2444535.562500,27.9056,-93.7647,0900,2.29,-3.28,4.0000,145.0000
1980-10-23 01:50:00 UTC,2444535.576389,27.9056,-93.7647,0900,2.88,-2.78,4.0000,134.0000
1980-10-23 02:10:00 UTC,2444535.590278,27.9056,-93.7647,0900,2.43,-1.76,3.0000,126.0000
1980-10-23 02:30:00 UTC,2444535.604167,27.9056,-93.7647,0900,1.91,-0.58,2.0000,107.0000
1980-10-23 02:50:00 UTC,2444535.618056,27.9056,-93.7647,0900,4.33,-2.50,5.0000,120.0000
1980-10-23 03:10:00 UTC,2444535.631944,27.9056,-93.7647,0900,1.84,-0.78,2.0000,113.0000
1980-10-23 03:30:00 UTC,2444535.645833,27.9056,-93.7647,0900,0.00,0.00,0.0000,55.0000
1980-10-23 03:50:00 UTC,2444535.659722,27.9056,-93.7647,0900,1.29,1.53,2.0000,40.0000
1980-10-23 04:10:00 UTC,2444535.673611,27.9056,-93.7647,0900,2.46,3.15,4.0000,38.0000
1980-10-23 04:30:00 UTC,2444535.687500,27.9056,-93.7647,0900,2.19,4.49,5.0000,26.0000
1980-10-23 04:50:00 UTC,2444535.701389,27.9056,-93.7647,0900,1.63,4.73,5.0000,19.0000
1980-10-23 05:10:00 UTC,2444535.715278,27.9056,-93.7647,0900,1.17,3.83,4.0000,17.0000
1980-10-23 05:30:00 UTC,2444535.729167,27.9056,-93.7647,0900,2.15,5.60,6.0000,21.0000
1980-10-23 05:50:00 UTC,2444535.743056,27.9056,-93.7647,0900,1.85,2.36,3.0000,38.0000
1980-10-23 06:10:00 UTC,2444535.756944,27.9056,-93.7647,0900,1.09,1.68,2.0000,33.0000
1980-10-23 06:30:00 UTC,2444535.770833,27.9056,-93.7647,0900,0.55,1.92,2.0000,16.0000
1980-10-23 06:50:00 UTC,2444535.784722,27.9056,-93.7647,0900,0.10,3.00,3.0000,2.0000
1980-10-23 07:10:00 UTC,2444535.798611,27.9056,-93.7647,0900,-0.14,2.00,2.0000,356.0000
1980-10-23 07:30:00 UTC,2444535.812500,27.9056,-93.7647,0900,0.26,2.99,3.0000,5.0000
1980-10-23 07:50:00 UTC,2444535.826389,27.9056,-93.7647,0900,0.09,1.00,1.0000,5.0000
1980-10-23 08:10:00 UTC,2444535.840278,27.9056,-93.7647,0900,0.00,0.00,0.0000,13.0000
1980-10-23 08:30:00 UTC,2444535.854167,27.9056,-93.7647,0900,0.33,0.95,1.0000,19.0000
1980-10-23 08:50:00 UTC,2444535.868056,27.9056,-93.7647,0900,0.45,1.95,2.0000,13.0000
1980-10-23 09:10:00 UTC,2444535.881944,27.9056,-93.7647,0900,0.90,3.90,4.0000,13.0000
1980-10-23 09:30:00 UTC,2444535.895833,27.9056,-93.7647,0900,1.10,3.85,4.0000,16.0000
1980-10-23 09:50:00 UTC,2444535.909722,27.9056,-93.7647,0900,0.52,2.95,3.0000,10.0000
1980-10-23 10:10:00 UTC,2444535.923611,27.9056,-93.7647,0900,0.37,2.98,3.0000,7.0000
1980-10-23 10:30:00 UTC,2444535.937500,27.9056,-93.7647,0900,0.35,3.98,4.0000,5.0000
1980-10-23 10:50:00 UTC,2444535.951389,27.9056,-93.7647,0900,0.44,4.98,5.0000,5.0000
1980-10-23 11:10:00 UTC,2444535.965278,27.9056,-93.7647,0900,0.73,2.91,3.0000,14.0000
1980-10-23 11:30:00 UTC,2444535.979167,27.9056,-93.7647,0900,1.38,4.81,5.0000,16.0000
1980-10-23 11:50:00 UTC,2444535.993056,27.9056,-93.7647,0900,1.46,4.78,5.0000,17.0000
1980-10-23 12:10:00 UTC,2444536.006944,27.9056,-93.7647,0900,2.00,3.46,4.0000,30.0000
1980-10-23 12:30:00 UTC,2444536.020833,27.9056,-93.7647,0900,2.72,4.19,5.0000,33.0000
1980-10-23 12:50:00 UTC,2444536.034722,27.9056,-93.7647,0900,2.18,3.35,4.0000,33.0000
1980-10-23 13:10:00 UTC,2444536.048611,27.9056,-93.7647,0900,2.94,4.05,5.0000,36.0000
1980-10-23 13:30:00 UTC,2444536.062500,27.9056,-93.7647,0900,3.08,3.94,5.0000,38.0000
1980-10-23 13:50:00 UTC,2444536.076389,27.9056,-93.7647,0900,2.93,2.73,4.0000,47.0000
1980-10-23 14:10:00 UTC,2444536.090278,27.9056,-93.7647,0900,4.60,3.86,6.0000,50.0000
1980-10-23 14:30:00 UTC,2444536.104167,27.9056,-93.7647,0900,4.91,3.44,6.0000,55.0000
1980-10-23 14:50:00 UTC,2444536.118056,27.9056,-93.7647,0900,5.73,4.02,7.0000,55.0000
1980-10-23 15:10:00 UTC,2444536.131944,27.9056,-93.7647,0900,3.66,3.41,5.0000,47.0000
1980-10-23 15:30:00 UTC,2444536.145833,27.9056,-93.7647,0900,4.17,4.32,6.0000,44.0000
1980-10-23 15:50:00 UTC,2444536.159722,27.9056,-93.7647,0900,2.93,2.73,4.0000,47.0000
1980-10-23 16:10:00 UTC,2444536.173611,27.9056,-93.7647,0900,2.83,2.83,4.0000,45.0000
1980-10-23 16:30:00 UTC,2444536.187500,27.9056,-93.7647,0900,3.69,4.73,6.0000,38.0000
1980-10-23 16:50:00 UTC,2444536.201389,27.9056,-93.7647,0900,4.00,6.93,8.0000,30.0000
1980-10-23 17:10:00 UTC,2444536.215278,27.9056,-93.7647,0900,4.00,6.93,8.0000,30.0000
1980-10-23 17:30:00 UTC,2444536.229167,27.9056,-93.7647,0900,3.07,6.29,7.0000,26.0000
1980-10-23 17:50:00 UTC,2444536.243056,27.9056,-93.7647,0900,2.85,6.39,7.0000,24.0000
1980-10-23 18:10:00 UTC,2444536.256944,27.9056,-93.7647,0900,2.87,7.47,8.0000,21.0000
1980-10-23 18:30:00 UTC,2444536.270833,27.9056,-93.7647,0900,1.57,6.82,7.0000,13.0000
1980-10-23 18:50:00 UTC,2444536.284722,27.9056,-93.7647,0900,2.21,7.69,8.0000,16.0000
1980-10-23 19:10:00 UTC,2444536.298611,27.9056,-93.7647,0900,2.63,8.61,9.0000,17.0000
1980-10-23 19:30:00 UTC,2444536.312500,27.9056,-93.7647,0900,2.05,6.69,7.0000,17.0000
1980-10-23 19:50:00 UTC,2444536.326389,27.9056,-93.7647,0900,1.38,4.81,5.0000,16.0000
1980-10-23 20:10:00 UTC,2444536.340278,27.9056,-93.7647,0900,3.50,6.06,7.0000,30.0000
1980-10-23 20:30:00 UTC,2444536.354167,27.9056,-93.7647,0900,3.25,7.31,8.0000,24.0000
1980-10-23 20:50:00 UTC,2444536.368056,27.9056,-93.7647,0900,1.63,4.73,5.0000,19.0000
1980-10-23 21:10:00 UTC,2444536.381944,27.9056,-93.7647,0900,1.79,4.67,5.0000,21.0000
1980-10-23 21:30:00 UTC,2444536.395833,27.9056,-93.7647,0900,1.65,5.77,6.0000,16.0000
1980-10-23 21:50:00 UTC,2444536.409722,27.9056,-93.7647,0900,4.11,5.66,7.0000,36.0000
1980-10-23 22:10:00 UTC,2444536.423611,27.9056,-93.7647,0900,1.04,4.89,5.0000,12.0000
1980-10-23 22:30:00 UTC,2444536.437500,27.9056,-93.7647,0900,-0.09,1.00,1.0000,355.0000
1980-10-23 22:50:00 UTC,2444536.451389,27.9056,-93.7647,0900,-0.03,2.00,2.0000,359.0000
1980-10-23 23:10:00 UTC,2444536.465278,27.9056,-93.7647,0900,-0.05,3.00,3.0000,359.0000
1980-10-23 23:30:00 UTC,2444536.479167,27.9056,-93.7647,0900,0.24,1.99,2.0000,7.0000
1980-10-23 23:50:00 UTC,2444536.493056,27.9056,-93.7647,0900,0.24,1.99,2.0000,7.0000
1980-10-24 00:10:00 UTC,2444536.506944,27.9056,-93.7647,0900,1.08,2.80,3.0000,21.0000
1980-10-24 00:30:00 UTC,2444536.520833,27.9056,-93.7647,0900,0.26,2.99,3.0000,5.0000
1980-10-24 00:50:00 UTC,2444536.534722,27.9056,-93.7647,0900,0.21,3.99,4.0000,3.0000
1980-10-24 01:10:00 UTC,2444536.548611,27.9056,-93.7647,0900,0.26,2.99,3.0000,5.0000
1980-10-24 01:30:00 UTC,2444536.562500,27.9056,-93.7647,0900,0.44,4.98,5.0000,5.0000
1980-10-24 01:50:00 UTC,2444536.576389,27.9056,-93.7647,0900,0.61,6.97,7.0000,5.0000
1980-10-24 02:10:00 UTC,2444536.590278,27.9056,-93.7647,0900,0.21,6.00,6.0000,2.0000
1980-10-24 02:30:00 UTC,2444536.604167,27.9056,-93.7647,0900,0.24,7.00,7.0000,2.0000
1980-10-24 02:50:00 UTC,2444536.618056,27.9056,-93.7647,0900,0.70,7.97,8.0000,5.0000
1980-10-24 03:10:00 UTC,2444536.631944,27.9056,-93.7647,0900,0.70,7.97,8.0000,5.0000
1980-10-24 03:30:00 UTC,2444536.645833,27.9056,-93.7647,0900,0.96,10.96,11.0000,5.0000
1980-10-24 03:50:00 UTC,2444536.659722,27.9056,-93.7647,0900,1.15,10.94,11.0000,6.0000
1980-10-24 04:10:00 UTC,2444536.673611,27.9056,-93.7647,0900,3.91,11.35,12.0000,19.0000
1980-10-24 04:30:00 UTC,2444536.687500,27.9056,-93.7647,0900,4.10,11.28,12.0000,20.0000
1980-10-24 04:50:00 UTC,2444536.701389,27.9056,-93.7647,0900,4.30,11.20,12.0000,21.0000
1980-10-24 05:10:00 UTC,2444536.715278,27.9056,-93.7647,0900,3.03,10.57,11.0000,16.0000
1980-10-24 05:30:00 UTC,2444536.729167,27.9056,-93.7647,0900,2.66,10.67,11.0000,14.0000
1980-10-24 05:50:00 UTC,2444536.743056,27.9056,-93.7647,0900,3.03,10.57,11.0000,16.0000
1980-10-24 06:10:00 UTC,2444536.756944,27.9056,-93.7647,0900,2.25,9.74,10.0000,13.0000
1980-10-24 06:30:00 UTC,2444536.770833,27.9056,-93.7647,0900,2.47,10.72,11.0000,13.0000
1980-10-24 06:50:00 UTC,2444536.784722,27.9056,-93.7647,0900,1.56,9.88,10.0000,9.0000
1980-10-24 07:10:00 UTC,2444536.798611,27.9056,-93.7647,0900,1.10,8.93,9.0000,7.0000
1980-10-24 07:30:00 UTC,2444536.812500,27.9056,-93.7647,0900,1.10,8.93,9.0000,7.0000
1980-10-24 07:50:00 UTC,2444536.826389,27.9056,-93.7647,0900,1.46,6.85,7.0000,12.0000
1980-10-24 08:10:00 UTC,2444536.840278,27.9056,-93.7647,0900,1.46,4.78,5.0000,17.0000
1980-10-24 08:30:00 UTC,2444536.854167,27.9056,-93.7647,0900,-0.35,4.99,5.0000,356.0000
1980-10-24 08:50:00 UTC,2444536.868056,27.9056,-93.7647,0900,-0.28,3.99,4.0000,356.0000
1980-10-24 09:10:00 UTC,2444536.881944,27.9056,-93.7647,0900,-0.95,4.91,5.0000,349.0000
1980-10-24 09:30:00 UTC,2444536.895833,27.9056,-93.7647,0900,-0.97,3.88,4.0000,346.0000
1980-10-24 09:50:00 UTC,2444536.909722,27.9056,-93.7647,0900,-0.05,3.00,3.0000,359.0000
1980-10-24 10:10:00 UTC,2444536.923611,27.9056,-93.7647,0900,-0.57,2.94,3.0000,349.0000
1980-10-24 10:30:00 UTC,2444536.937500,27.9056,-93.7647,0900,-0.83,3.91,4.0000,348.0000
1980-10-24 10:50:00 UTC,2444536.951389,27.9056,-93.7647,0900,-0.48,1.94,2.0000,346.0000
1980-10-24 11:10:00 UTC,2444536.965278,27.9056,-93.7647,0900,-0.62,1.90,2.0000,342.0000
1980-10-24 11:30:00 UTC,2444536.979167,27.9056,-93.7647,0900,-1.46,1.36,2.0000,313.0000
1980-10-24 11:50:00 UTC,2444536.993056,27.9056,-93.7647,0900,-2.52,1.63,3.0000,303.0000
1980-10-24 12:10:00 UTC,2444537.006944,27.9056,-93.7647,0900,-1.46,1.36,2.0000,313.0000
1980-10-24 12:30:00 UTC,2444537.020833,27.9056,-93.7647,0900,-3.19,2.41,4.0000,307.0000
1980-10-24 12:50:00 UTC,2444537.034722,27.9056,-93.7647,0900,-3.15,2.46,4.0000,308.0000
1980-10-24 13:10:00 UTC,2444537.048611,27.9056,-93.7647,0900,-3.54,3.54,5.0000,315.0000
1980-10-24 13:30:00 UTC,2444537.062500,27.9056,-93.7647,0900,-3.41,3.66,5.0000,317.0000
1980-10-24 13:50:00 UTC,2444537.076389,27.9056,-93.7647,0900,-3.66,3.41,5.0000,313.0000
1980-10-24 14:10:00 UTC,2444537.090278,27.9056,-93.7647,0900,-3.99,3.01,5.0000,307.0000
1980-10-24 14:30:00 UTC,2444537.104167,27.9056,-93.7647,0900,-3.02,2.62,4.0000,311.0000
1980-10-24 14:50:00 UTC,2444537.118056,27.9056,-93.7647,0900,-5.80,3.91,7.0000,304.0000
1980-10-24 15:10:00 UTC,2444537.131944,27.9056,-93.7647,0900,-4.10,2.87,5.0000,305.0000
1980-10-24 15:30:00 UTC,2444537.145833,27.9056,-93.7647,0900,-6.18,3.29,7.0000,298.0000